Regional Weather Roundup
Issued by NWS

Home | Current Version | Previous Version | Graphics & Text | Print | Product List | Glossary Off
Versions: 1 2 3 4 5 6 7 8 9 10 11 12 13 14 15 16 17 18 19 20 21 22 23 24 25 26 27 28 29 30 31 32 33 34 35 36 37 38 39 40 41 42 43 44 45 46 47 48 49 50

000
ASUS43 KTOP 230459
RWRKS

WEATHER ROUNDUP FOR KANSAS
NATIONAL WEATHER SERVICE GOODLAND KS
1200 AM CDT SUN APR 23 2017

NOTE:  "FAIR" INDICATES FEW OR NO CLOUDS BELOW 12,000 FEET WITH NO
SIGNIFICANT WEATHER AND/OR OBSTRUCTIONS TO VISIBILITY.

KSZ001>006-013>018-027>032-041>047-230600-
NORTHWEST KANSAS

CITY           SKY/WX    TMP DP  RH WIND       PRES   REMARKS
GOODLAND       CLEAR     42  32  67 S10       30.25F
HAYS           CLEAR     41  34  76 NW5       30.25S
HILL CITY      CLEAR     39  33  79 W3        30.25F
RUSSELL        CLEAR     47  33  58 NW5       30.22S
$$

KSZ061>065-074>080-084>089-230600-
SOUTHWEST KANSAS

CITY           SKY/WX    TMP DP  RH WIND       PRES   REMARKS
DODGE CITY     CLEAR     41  33  73 NW6       30.26S
ELKHART          N/A     42  30  62 S5          N/A
GARDEN CITY    CLEAR     44  31  60 W5        30.26F
GREAT BEND     CLEAR     40  36  86 W9        30.24S
LIBERAL        CLEAR     41  28  60 CALM      30.29S
$$

KSZ066>073-081>083-090>101-230600-
SOUTHEAST KANSAS

CITY           SKY/WX    TMP DP  RH WIND       PRES   REMARKS
CHANUTE        CLEAR     47  36  65 N7        30.16S
COFFEYVILLE    CLOUDY    48  43  82 SW3       30.15F
HUTCHINSON     CLEAR     42  38  85 W6        30.22R
MEDICINE LODGE   N/A     41  37  86 N5        30.22S
NEWTON         CLEAR     45  37  73 N7        30.21S
PARSONS          N/A     44  42  93 CALM      30.16S
WICHITA INTL   CLEAR     50  38  63 N7        30.20R
WICHITA JABRA  CLEAR     45  38  76 N8        30.20R
WINFIELD       CLEAR     44  39  82 NW7       30.20R
$$

KSZ007>012-019>026-033>040-048>060-102>105-230600-
NORTHEAST KANSAS

CITY           SKY/WX    TMP DP  RH WIND       PRES   REMARKS
CONCORDIA      CLEAR     49  32  52 CALM      30.22S
EMPORIA        CLEAR     48  35  60 N5        30.19R
LAWRENCE       CLEAR     43  36  76 N7        30.19S
MANHATTAN      CLEAR     39  35  86 CALM      30.21S
OLATHE IND     CLEAR     43  33  68 N8        30.19R
OLATHE EXE     CLEAR     51  31  46 N5        30.18R
SALINA         CLEAR     47  36  65 N6        30.22S
TOPEKA BILLARD CLEAR     46  39  76 CALM      30.20R
TOPEKA FORBES  CLEAR     47  35  63 N3        30.19S
$$




USA.gov is the U.S. government's official web portal to all federal, state and local government web resources and services.